User: anonymous   Login
Location: Étavigny
(49.1201°N, 2.9800°E)
Time: 01:05:40
(UTC+00:00)
Language:

Cosmos 1455 Rocket - Orbit

View from above orbital plane
View from above orbital plane
View from above satellite
View from above satellite

Ground track
Ground track

The orbit data is extracted from the following two-line orbital elements,

1 14033U 83037B   23153.35944076  .00000519  00000-0  58763-4 0  9992
2 14033  82.5064 103.6378 0018706 132.4785 227.8015 14.84372659781222
Epoch (UTC): 02 June 2023 08:37:35
Eccentricity: 0.0018706
inclination: 82.5064°
perigee height: 602 km
apogee height: 628 km
right ascension of ascending node: 103.6378°
argument of perigee: 132.4785°
revolutions per day: 14.84372659
mean anomaly at epoch: 227.8015°
orbit number at epoch: 78122

The dashed part of the orbit path shows where the satellite is in the earth's shadow,  

DLR